TimeAKDT,TemperatureF,Dew PointF,Humidity,Sea Level PressureIn,VisibilityMPH,Wind Direction,Wind SpeedMPH,Gust SpeedMPH,PrecipitationIn,Events,Conditions,WindDirDegrees,DateUTC
12:01 AM,19.0,16.0,88,30.70,10.0,SSW,4.6,-,N/A,,Clear,200,2012-10-25 08:01:00
1:01 AM,17.1,14.0,88,30.69,10.0,SSE,3.5,-,N/A,,Clear,160,2012-10-25 09:01:00
2:01 AM,15.1,12.9,91,30.67,10.0,SSE,3.5,-,N/A,,Clear,150,2012-10-25 10:01:00
3:01 AM,15.1,12.9,91,30.65,10.0,SSE,6.9,-,N/A,,Clear,160,2012-10-25 11:01:00
4:01 AM,12.9,10.9,92,30.64,10.0,South,3.5,-,N/A,,Clear,180,2012-10-25 12:01:00
5:01 AM,12.9,10.9,92,30.61,10.0,South,5.8,-,N/A,,Clear,170,2012-10-25 13:01:00
6:01 AM,12.0,10.0,92,30.59,10.0,South,4.6,-,N/A,,Clear,180,2012-10-25 14:01:00
7:01 AM,12.0,10.0,92,30.57,10.0,SE,4.6,-,N/A,,Clear,140,2012-10-25 15:01:00
8:01 AM,14.0,10.9,88,30.55,10.0,South,5.8,-,N/A,,Clear,170,2012-10-25 16:01:00
9:01 AM,14.0,12.0,92,30.53,10.0,South,5.8,-,N/A,,Clear,180,2012-10-25 17:01:00
10:01 AM,16.0,12.9,88,30.51,10.0,SSW,8.1,-,N/A,,Clear,200,2012-10-25 18:01:00
11:01 AM,15.1,12.0,88,30.49,10.0,SSW,8.1,-,N/A,,Clear,210,2012-10-25 19:01:00
12:01 PM,19.0,14.0,81,30.48,10.0,South,4.6,-,N/A,,Clear,190,2012-10-25 20:01:00
1:01 PM,21.0,17.1,85,30.47,10.0,SW,5.8,-,N/A,,Clear,220,2012-10-25 21:01:00
2:01 PM,21.9,18.0,85,30.45,10.0,SW,10.4,-,N/A,,Partly Cloudy,230,2012-10-25 22:01:00
3:01 PM,24.1,19.9,84,30.44,10.0,WSW,10.4,-,N/A,,Clear,240,2012-10-25 23:01:00
4:01 PM,27.0,23.0,85,30.43,10.0,West,13.8,-,N/A,,Clear,270,2012-10-26 00:01:00
4:59 PM,30.2,28.4,93,30.43,4.0,West,20.7,-,0.00,,Mostly Cloudy,280,2012-10-26 00:59:00
5:01 PM,30.0,28.0,92,30.43,3.0,West,21.9,-,0.00,,Mostly Cloudy,280,2012-10-26 01:01:00
5:06 PM,30.2,28.4,93,30.43,4.0,WNW,20.7,-,0.00,,Mostly Cloudy,290,2012-10-26 01:06:00
5:24 PM,30.2,28.4,93,30.42,2.0,West,21.9,-,0.00,,Overcast,280,2012-10-26 01:24:00
5:32 PM,30.2,28.4,93,30.42,3.0,West,21.9,-,0.00,,Overcast,280,2012-10-26 01:32:00
6:01 PM,30.2,28.4,93,30.42,4.0,West,21.9,-,0.00,,Overcast,280,2012-10-26 02:01:00
6:15 PM,30.2,30.2,100,30.41,3.0,West,20.7,-,0.00,Snow,Light Snow,280,2012-10-26 02:15:00
6:24 PM,30.2,30.2,100,30.41,2.5,West,23.0,-,0.00,Snow,Light Snow,270,2012-10-26 02:24:00
6:53 PM,30.2,30.2,100,30.41,4.0,West,20.7,-,0.00,Snow,Light Snow,280,2012-10-26 02:53:00
7:01 PM,30.0,30.0,100,30.41,3.0,West,21.9,-,0.00,Snow,Light Snow,270,2012-10-26 03:01:00
7:40 PM,30.2,30.2,100,30.41,2.0,West,21.9,-,0.00,Snow,Light Snow,280,2012-10-26 03:40:00
7:48 PM,30.2,30.2,100,30.41,2.5,West,20.7,-,0.00,Snow,Light Snow,280,2012-10-26 03:48:00
7:56 PM,30.2,30.2,100,30.41,4.0,West,19.6,-,0.00,Snow,Light Snow,280,2012-10-26 03:56:00
8:01 PM,30.9,30.9,100,30.41,4.0,West,19.6,-,0.00,Snow,Light Snow,280,2012-10-26 04:01:00
8:23 PM,30.2,30.2,100,30.40,3.0,West,18.4,-,0.00,Snow,Light Snow,280,2012-10-26 04:23:00
9:01 PM,30.2,30.2,100,30.39,5.0,West,16.1,-,0.00,,Overcast,280,2012-10-26 05:01:00
9:54 PM,30.2,30.2,100,30.38,9.0,West,16.1,-,0.00,,Mostly Cloudy,270,2012-10-26 05:54:00
10:01 PM,30.2,30.2,100,30.38,8.0,West,16.1,-,0.00,,Mostly Cloudy,270,2012-10-26 06:01:00
11:01 PM,30.9,30.9,100,30.38,9.0,West,15.0,-,0.00,,Overcast,270,2012-10-26 07:01:00